TimeHST,TemperatureF,Dew PointF,Humidity,Sea Level PressureIn,VisibilityMPH,Wind Direction,Wind SpeedMPH,Gust SpeedMPH,PrecipitationIn,Events,Conditions,WindDirDegrees,DateUTC
12:53 AM,66.9,66.0,97,30.00,10.0,NNW,4.6,-,N/A,,Partly Cloudy,330,2012-12-29 10:53:00
1:53 AM,66.0,64.0,93,29.99,10.0,NNW,4.6,-,N/A,,Partly Cloudy,330,2012-12-29 11:53:00
2:53 AM,64.9,64.9,100,29.98,10.0,North,3.5,-,N/A,,Partly Cloudy,350,2012-12-29 12:53:00
3:53 AM,64.9,64.0,97,29.98,10.0,NW,4.6,-,N/A,,Partly Cloudy,310,2012-12-29 13:53:00
4:53 AM,64.0,63.0,96,29.98,10.0,NNW,3.5,-,N/A,,Scattered Clouds,330,2012-12-29 14:53:00
5:53 AM,64.0,63.0,96,29.99,10.0,NNW,3.5,-,N/A,,Partly Cloudy,340,2012-12-29 15:53:00
6:53 AM,63.0,62.1,97,30.00,10.0,NNW,4.6,-,N/A,,Clear,340,2012-12-29 16:53:00
7:53 AM,64.9,63.0,93,30.02,10.0,Variable,4.6,-,N/A,,Partly Cloudy,0,2012-12-29 17:53:00
8:53 AM,70.0,64.0,81,30.04,10.0,Calm,Calm,-,N/A,,Partly Cloudy,0,2012-12-29 18:53:00
9:53 AM,75.9,62.1,62,30.04,10.0,Variable,4.6,-,N/A,,Partly Cloudy,0,2012-12-29 19:53:00
10:53 AM,78.1,63.0,60,30.02,10.0,Calm,Calm,-,N/A,,Scattered Clouds,0,2012-12-29 20:53:00
11:53 AM,78.1,63.0,60,30.00,10.0,South,3.5,-,N/A,,Mostly Cloudy,190,2012-12-29 21:53:00
12:53 PM,78.1,63.0,60,29.97,10.0,ESE,5.8,-,N/A,,Mostly Cloudy,120,2012-12-29 22:53:00
1:53 PM,77.0,66.0,69,29.94,10.0,Calm,Calm,-,N/A,,Mostly Cloudy,0,2012-12-29 23:53:00
2:53 PM,79.0,62.1,56,29.92,10.0,North,8.1,-,N/A,,Scattered Clouds,360,2012-12-30 00:53:00
3:53 PM,79.0,64.0,60,29.93,10.0,NNE,11.5,-,N/A,,Partly Cloudy,30,2012-12-30 01:53:00
4:53 PM,77.0,63.0,62,29.94,10.0,ENE,11.5,-,N/A,,Partly Cloudy,60,2012-12-30 02:53:00
5:53 PM,75.0,64.0,69,29.95,10.0,ENE,11.5,-,N/A,,Partly Cloudy,70,2012-12-30 03:53:00
6:53 PM,73.0,64.9,76,29.96,10.0,ENE,13.8,-,N/A,,Partly Cloudy,60,2012-12-30 04:53:00
7:53 PM,72.0,66.0,81,29.98,10.0,ENE,10.4,-,N/A,,Partly Cloudy,60,2012-12-30 05:53:00
8:53 PM,71.1,64.9,81,29.99,10.0,NNE,4.6,-,N/A,,Partly Cloudy,20,2012-12-30 06:53:00
9:53 PM,70.0,64.9,84,29.99,10.0,NNW,6.9,-,N/A,,Partly Cloudy,340,2012-12-30 07:53:00
10:53 PM,68.0,64.9,90,29.99,10.0,Calm,Calm,-,N/A,,Partly Cloudy,0,2012-12-30 08:53:00
11:53 PM,68.0,64.9,90,29.99,10.0,NNW,4.6,-,N/A,,Partly Cloudy,330,2012-12-30 09:53:00